FW6259 Weather Reports


Display with metric or nautical units.
time (UTC)temp
F
wind
direction
speed
MPH
gust
MPH
rain 1hr
in
rain 24hr
in
rain mn
in
humidity
%
barometer
mb
20260906204507 58 40 0.0 4.0 0.00 0.00 0.00 72 1017.9
20260906203053 57 243 0.0 3.0 0.00 0.00 0.00 73 1017.9
20260906201600 58 18 1.0 3.0 0.00 0.00 0.00 72 1017.9
20260906200053 58 314 1.0 3.0 0.00 0.00 0.00 72 1018.1
20260906194503 58 319 3.0 5.0 0.00 0.00 0.00 71 1018.1
20260906193056 58 299 1.0 5.0 0.00 0.00 0.00 73 1018.2
20260906191550 57 312 0.0 4.0 0.00 0.00 0.00 75 1018.4
20260906190003 56 60 2.0 4.0 0.00 0.00 0.00 76 1018.4
20260906184555 55 342 2.0 5.0 0.00 0.00 0.00 77 1018.6
20260906183007 54 345 1.0 5.0 0.00 0.00 0.00 80 1018.9
20260906181556 52 18 0.0 2.0 0.00 0.00 0.00 81 1019.1
20260906180002 51 346 0.0 3.0 0.00 0.00 0.00 83 1019.3
20260906174613 48 18 2.0 4.0 0.00 0.00 0.00 86 1019.4
20260906173100 47 101 0.0 4.0 0.00 0.00 0.00 89 1019.4
20260906171612 45 76 0.0 3.0 0.00 0.00 0.00 92 1019.5
20260906170054 43 104 0.0 2.0 0.00 0.00 0.00 93 1019.8
20260906164556 42 80 0.0 1.0 0.00 0.00 0.00 97 1019.8
20260906163045 41 189 0.0 0.0 0.00 0.00 0.00 98 1019.8
20260906161621 40 189 0.0 0.0 0.00 0.00 0.00 98 1019.9
20260906161503 40 189 0.0 0.0 0.00 0.00 0.00 98 1019.9
20260906160047 39 172 0.0 0.0 0.00 0.00 0.00 98 1019.9
20260906154504 38 172 0.0 0.0 0.00 0.00 0.00 98 1020.0
20260906153107 37 172 0.0 0.0 0.00 0.00 0.00 98 1020.0
20260906151549 36 172 0.0 0.0 0.00 0.00 0.00 97 1020.1
20260906150108 36 172 0.0 0.0 0.00 0.00 0.00 97 1020.3
20260906144550 36 172 0.0 0.0 0.00 0.00 0.00 97 1020.4
20260906143002 34 328 0.0 0.0 0.00 0.00 0.00 95 1020.4
20260906141621 37 329 0.0 0.0 0.00 0.00 0.00 97 1020.5
20260906140002 37 329 0.0 0.0 0.00 0.00 0.00 96 1020.6
20260906134559 37 329 0.0 0.0 0.00 0.00 0.00 95 1020.6
20260906133055 39 329 0.0 0.0 0.00 0.00 0.00 96 1020.7
20260906131609 40 329 0.0 0.0 0.00 0.00 0.00 98 1020.8
20260906130059 40 329 0.0 0.0 0.00 0.00 0.00 95 1021.0
20260906124501 42 329 0.0 0.0 0.00 0.00 0.00 96 1021.0
20260906123055 42 329 0.0 0.0 0.00 0.00 0.00 97 1020.9
20260906121521 42 329 0.0 0.0 0.00 0.00 0.00 95 1020.8
20260906114512 44 328 0.0 0.0 0.00 0.00 0.00 95 1020.9
20260906113059 45 329 0.0 0.0 0.00 0.00 0.00 96 1020.9
20260906111551 45 328 0.0 0.0 0.00 0.00 0.00 91 1020.9
20260906110057 47 328 0.0 0.0 0.00 0.00 0.00 92 1020.8
20260906104553 48 329 0.0 0.0 0.00 0.00 0.00 92 1020.8
20260906103012 48 329 0.0 0.0 0.00 0.00 0.00 92 1020.8
20260906101603 49 328 0.0 0.0 0.00 0.00 0.00 91 1020.8
20260906100047 49 328 0.0 1.0 0.00 0.00 0.00 90 1020.7
20260906094605 49 330 0.0 2.0 0.00 0.00 0.00 89 1020.9
20260906093053 50 139 0.0 1.0 0.00 0.00 0.00 89 1020.7
20260906091549 50 240 0.0 0.0 0.00 0.00 0.00 87 1020.5
20260906090057 51 69 0.0 0.0 0.00 0.00 0.00 87 1020.5
20260906084558 51 69 0.0 0.0 0.00 0.00 0.00 86 1020.6
20260906083104 52 65 0.0 1.0 0.00 0.00 0.00 85 1020.7
20260906081556 52 66 0.0 2.0 0.00 0.00 0.00 86 1020.6
20260906080047 52 69 0.0 3.0 0.00 0.00 0.00 86 1020.5
20260906074554 53 73 1.0 3.0 0.00 0.00 0.00 86 1020.6
20260906073043 52 115 0.0 2.0 0.00 0.00 0.00 85 1020.5
20260906071501 53 86 0.0 1.0 0.00 0.00 0.00 84 1020.4
20260906070047 53 318 0.0 1.0 0.00 0.00 0.00 84 1020.3
20260906064602 53 354 0.0 2.0 0.00 0.00 0.00 83 1020.2
20260906063052 54 340 1.0 2.0 0.00 0.00 0.00 81 1020.2
20260906061504 54 40 1.0 6.0 0.00 0.00 0.00 80 1019.9
20260906060133 55 356 2.0 10.0 0.00 0.00 0.00 78 1019.8
20260906054605 56 346 1.0 7.0 0.00 0.00 0.00 77 1019.6
20260906053059 57 317 3.0 8.0 0.00 0.00 0.00 75 1019.5
20260906051600 59 298 3.0 11.0 0.00 0.00 0.00 69 1019.4
20260906050003 60 112 3.0 13.0 0.00 0.00 0.00 63 1018.9
20260906044555 60 200 3.0 11.0 0.00 0.00 0.00 64 1018.7
20260906043050 60 252 4.0 11.0 0.00 0.00 0.00 65 1018.4
20260906041600 60 179 2.0 8.0 0.00 0.00 0.00 65 1018.1
20260906040046 61 146 4.0 12.0 0.00 0.00 0.00 64 1017.9
20260906034503 62 198 7.0 12.0 0.00 0.00 0.00 61 1017.8
20260906033055 63 203 5.0 14.0 0.00 0.00 0.00 59 1017.7
20260906031554 65 141 4.0 14.0 0.00 0.00 0.00 56 1017.4
20260906030058 65 162 6.0 13.0 0.00 0.00 0.00 54 1017.5
20260906024556 66 190 8.0 17.0 0.00 0.00 0.00 53 1017.4
20260906023051 66 229 8.0 16.0 0.00 0.00 0.00 53 1017.2
20260906021602 66 198 6.0 15.0 0.00 0.00 0.00 53 1017.0
20260906020051 67 240 8.0 14.0 0.00 0.00 0.00 53 1016.9
20260906014549 67 165 5.0 16.0 0.00 0.00 0.00 52 1016.9
20260906013059 67 286 8.0 17.0 0.00 0.00 0.00 51 1016.9
20260906011550 67 119 5.0 16.0 0.00 0.00 0.00 54 1016.7
20260906010002 67 245 9.0 18.0 0.00 0.00 0.00 54 1016.8
20260906004607 68 253 9.0 24.0 0.00 0.00 0.00 52 1017.0
20260906003056 68 265 8.0 23.0 0.00 0.00 0.00 53 1016.9
20260906001601 68 146 8.0 21.0 0.00 0.00 0.00 52 1016.9
20260906000058 68 159 8.0 17.0 0.00 0.00 0.00 52 1017.1
20260905234548 68 205 10.0 19.0 0.00 0.00 0.00 52 1017.0
20260905233057 68 214 11.0 19.0 0.00 0.00 0.00 53 1017.0
20260905231555 68 175 9.0 17.0 0.00 0.00 0.00 54 1017.3
20260905230157 67 169 7.0 18.0 0.00 0.00 0.00 55 1017.3
20260905224551 68 190 11.0 21.0 0.00 0.00 0.00 54 1017.2
20260905223101 68 141 9.0 20.0 0.00 0.00 0.00 54 1017.2
20260905221559 68 188 8.0 21.0 0.00 0.00 0.00 54 1017.3
20260905220047 68 176 6.0 19.0 0.00 0.00 0.00 55 1017.1
20260905214505 68 262 8.0 18.0 0.00 0.00 0.00 54 1017.2
20260905213055 66 193 8.0 18.0 0.00 0.00 0.00 56 1017.4
20260905211549 65 189 6.0 18.0 0.00 0.00 0.00 58 1017.4
20260905210001 65 178 11.0 20.0 0.00 0.00 0.00 58 1017.3